When you browse on this site, cookies collect data to enhance your experience and personalize the content and advertising you see.
Visit our Privacy Policy to learn more. By continuing to use the site, you agree to this use of cookies and data.
  • In Spain
  • List of Countries
  • For 7 days
  • Water Temperature
  • Weather Map
  • Weather Widgets
  • user-avatar
    Login

    Hourly Weather Chelmsford

    Today, 5 December, Thursday

    Time Temperature Precipitation Wind Pressure Humidity
    00:00 +2°C° 0 mm 2 mps 762 mmHg 90%
    01:00 +2°C° 0 mm 2 mps 762 mmHg 91%
    02:00 +2°C° 0 mm 2 mps 761 mmHg 91%
    03:00 +1°C° 0 mm 3 mps 761 mmHg 92%
    04:00 +1°C° 0 mm 3 mps 761 mmHg 92%
    05:00 +1°C° 0 mm 3 mps 762 mmHg 92%
    06:00 +1°C° 0 mm 3 mps 762 mmHg 92%
    07:00 +1°C° 0 mm 3 mps 762 mmHg 93%
    08:00 +1°C° 0 mm 4 mps 762 mmHg 93%
    09:00 +1°C° 0 mm 4 mps 761 mmHg 94%
    10:00 +3°C° 0 mm 4 mps 761 mmHg 90%
    11:00 +3°C° 0 mm 5 mps 761 mmHg 87%
    12:00 +5°C° 0 mm 5 mps 761 mmHg 84%
    13:00 +5°C° 0 mm 5 mps 760 mmHg 83%
    14:00 +5°C° 0 mm 5 mps 759 mmHg 81%
    15:00 +5°C° 0 mm 5 mps 759 mmHg 80%
    16:00 +5°C° 0.1 mm 6 mps 758 mmHg 79%
    17:00 +5°C° 0.1 mm 7 mps 758 mmHg 78%
    18:00 +5°C° 0.1 mm 8 mps 758 mmHg 77%
    19:00 +5°C° 0 mm 8 mps 757 mmHg 77%
    20:00 +6°C° 0 mm 9 mps 757 mmHg 77%
    21:00 +6°C° 0 mm 9 mps 757 mmHg 77%
    22:00 +6°C° 0 mm 9 mps 756 mmHg 79%
    23:00 +7°C° 0 mm 9 mps 756 mmHg 81%

    Tomorrow, 6 December, Friday

    Time Temperature Precipitation Wind Pressure Humidity
    00:00 +7°C° 0 mm 9 mps 755 mmHg 84%
    01:00 +7°C° 0.1 mm 9 mps 754 mmHg 85%
    02:00 +8°C° 0.1 mm 9 mps 754 mmHg 86%
    03:00 +8°C° 0.1 mm 9 mps 753 mmHg 88%
    04:00 +8°C° 0.1 mm 9 mps 753 mmHg 88%
    05:00 +10°C° 0.1 mm 9 mps 753 mmHg 89%
    06:00 +10°C° 0.1 mm 8 mps 752 mmHg 89%
    07:00 +10°C° 0.2 mm 8 mps 752 mmHg 89%
    08:00 +10°C° 0.2 mm 8 mps 752 mmHg 90%
    09:00 +10°C° 0.2 mm 8 mps 751 mmHg 90%
    10:00 +11°C° 0 mm 8 mps 751 mmHg 89%
    11:00 +11°C° 0 mm 8 mps 750 mmHg 88%
    12:00 +11°C° 0 mm 8 mps 750 mmHg 87%
    13:00 +11°C° 0.2 mm 8 mps 749 mmHg 85%
    14:00 +11°C° 0.2 mm 7 mps 748 mmHg 84%
    15:00 +11°C° 0.2 mm 7 mps 747 mmHg 82%
    16:00 +10°C° 0.2 mm 7 mps 748 mmHg 80%
    17:00 +9°C° 0.2 mm 8 mps 748 mmHg 79%
    18:00 +7°C° 0.2 mm 9 mps 748 mmHg 77%
    19:00 +7°C° 0 mm 8 mps 749 mmHg 79%
    20:00 +7°C° 0 mm 8 mps 750 mmHg 80%
    21:00 +6°C° 0 mm 7 mps 751 mmHg 81%
    22:00 +6°C° 0 mm 7 mps 752 mmHg 83%
    23:00 +6°C° 0 mm 7 mps 753 mmHg 85%

    Day after tomorrow, 7 December, Saturday

    Time Temperature Precipitation Wind Pressure Humidity
    00:00 +5°C° 0 mm 6 mps 753 mmHg 86%
    01:00 +5°C° 0 mm 6 mps 754 mmHg 87%
    02:00 +5°C° 0 mm 6 mps 754 mmHg 88%
    03:00 +5°C° 0 mm 6 mps 754 mmHg 89%
    04:00 +4°C° 0 mm 6 mps 755 mmHg 89%
    05:00 +5°C° 0 mm 5 mps 755 mmHg 89%
    06:00 +5°C° 0 mm 5 mps 755 mmHg 90%
    07:00 +5°C° 0 mm 5 mps 756 mmHg 90%
    08:00 +5°C° 0 mm 5 mps 756 mmHg 90%
    09:00 +5°C° 0 mm 5 mps 757 mmHg 90%
    10:00 +6°C° 0 mm 5 mps 757 mmHg 86%
    11:00 +7°C° 0 mm 5 mps 757 mmHg 82%
    12:00 +8°C° 0 mm 5 mps 757 mmHg 78%
    13:00 +8°C° 0 mm 5 mps 757 mmHg 80%
    14:00 +7°C° 0 mm 5 mps 756 mmHg 81%
    15:00 +7°C° 0 mm 4 mps 756 mmHg 83%
    16:00 +7°C° 0 mm 4 mps 756 mmHg 85%
    17:00 +6°C° 0 mm 5 mps 756 mmHg 88%
    18:00 +6°C° 0 mm 5 mps 755 mmHg 90%
    19:00 +5°C° 0 mm 6 mps 755 mmHg 90%
    20:00 +6°C° 0 mm 7 mps 754 mmHg 91%
    21:00 +6°C° 0 mm 7 mps 754 mmHg 91%
    22:00 +7°C° 0.2 mm 8 mps 753 mmHg 90%
    23:00 +7°C° 0.2 mm 9 mps 751 mmHg 89%

    8 December, Sunday

    Time Temperature Precipitation Wind Pressure Humidity
    00:00 +8°C° 0.2 mm 10 mps 750 mmHg 88%
    01:00 +9°C° 1.1 mm 10 mps 749 mmHg 88%
    02:00 +9°C° 1.1 mm 10 mps 748 mmHg 89%
    03:00 +11°C° 1.1 mm 11 mps 747 mmHg 89%
    04:00 +9°C° 0.1 mm 10 mps 747 mmHg 86%
    05:00 +10°C° 0.1 mm 9 mps 747 mmHg 82%
    06:00 +10°C° 0.1 mm 8 mps 747 mmHg 78%
    07:00 +9°C° 0 mm 7 mps 748 mmHg 77%
    08:00 +6°C° 0 mm 7 mps 749 mmHg 76%
    09:00 +5°C° 0 mm 7 mps 749 mmHg 75%
    10:00 +6°C° 0 mm 8 mps 749 mmHg 73%
    11:00 +7°C° 0 mm 8 mps 749 mmHg 71%
    12:00 +8°C° 0 mm 9 mps 748 mmHg 70%
    13:00 +7°C° 0.9 mm 9 mps 748 mmHg 71%
    14:00 +6°C° 0.9 mm 9 mps 747 mmHg 73%
    15:00 +6°C° 0.9 mm 9 mps 747 mmHg 75%
    16:00 +5°C° 0 mm 9 mps 747 mmHg 74%
    17:00 +5°C° 0 mm 9 mps 746 mmHg 73%
    18:00 +5°C° 0 mm 9 mps 746 mmHg 72%
    19:00 +5°C° 0 mm 10 mps 746 mmHg 72%
    20:00 +4°C° 0 mm 11 mps 745 mmHg 72%
    21:00 +4°C° 0 mm 12 mps 745 mmHg 73%
    22:00 +4°C° 0 mm 12 mps 744 mmHg 72%
    23:00 +4°C° 0 mm 12 mps 744 mmHg 71%

    9 December, Monday

    Time Temperature Precipitation Wind Pressure Humidity
    00:00 +4°C° 0 mm 12 mps 743 mmHg 71%
    01:00 +4°C° 0.1 mm 12 mps 743 mmHg 73%
    02:00 +4°C° 0.1 mm 12 mps 742 mmHg 75%
    03:00 +4°C° 0.1 mm 12 mps 742 mmHg 77%
    04:00 +5°C° 0.3 mm 13 mps 743 mmHg 75%
    05:00 +5°C° 0.3 mm 13 mps 744 mmHg 72%
    06:00 +5°C° 0.3 mm 13 mps 744 mmHg 70%
    07:00 +5°C° 0 mm 12 mps 746 mmHg 70%
    08:00 +5°C° 0 mm 12 mps 748 mmHg 69%
    09:00 +6°C° 0 mm 11 mps 750 mmHg 69%
    10:00 +6°C° 0 mm 11 mps 751 mmHg 66%
    11:00 +7°C° 0 mm 11 mps 753 mmHg 63%
    12:00 +7°C° 0 mm 10 mps 754 mmHg 61%
    13:00 +6°C° 0 mm 9 mps 755 mmHg 64%
    14:00 +6°C° 0 mm 8 mps 756 mmHg 66%
    15:00 +6°C° 0 mm 7 mps 758 mmHg 69%
    16:00 +7°C° 0 mm 6 mps 758 mmHg 73%
    17:00 +5°C° 0 mm 6 mps 759 mmHg 76%
    18:00 +6°C° 0 mm 5 mps 759 mmHg 79%
    19:00 +6°C° 0 mm 5 mps 759 mmHg 80%
    20:00 +6°C° 0 mm 5 mps 759 mmHg 81%
    21:00 +6°C° 0 mm 5 mps 759 mmHg 82%
    22:00 +5°C° 0 mm 6 mps 759 mmHg 83%
    23:00 +5°C° 0 mm 6 mps 758 mmHg 84%

    10 December, Tuesday

    Time Temperature Precipitation Wind Pressure Humidity
    00:00 +5°C° 0 mm 6 mps 758 mmHg 84%
    01:00 +6°C° 0.2 mm 7 mps 757 mmHg 85%
    02:00 +6°C° 0.2 mm 7 mps 756 mmHg 85%
    03:00 +7°C° 0.2 mm 8 mps 755 mmHg 85%
    04:00 +7°C° 0.7 mm 8 mps 753 mmHg 87%
    05:00 +7°C° 0.7 mm 9 mps 752 mmHg 88%
    06:00 +8°C° 0.7 mm 9 mps 751 mmHg 90%
    07:00 +8°C° 0.6 mm 9 mps 749 mmHg 90%
    08:00 +10°C° 0.6 mm 9 mps 748 mmHg 91%
    09:00 +11°C° 0.6 mm 10 mps 747 mmHg 91%
    10:00 +11°C° 0.1 mm 10 mps 746 mmHg 89%
    11:00 +12°C° 0.1 mm 10 mps 746 mmHg 86%
    12:00 +13°C° 0.1 mm 11 mps 745 mmHg 84%
    13:00 +13°C° 0.1 mm 11 mps 744 mmHg 83%
    14:00 +13°C° 0.1 mm 11 mps 743 mmHg 82%
    15:00 +13°C° 0.1 mm 11 mps 742 mmHg 81%
    16:00 +13°C° 0.1 mm 12 mps 742 mmHg 80%
    17:00 +13°C° 0.1 mm 12 mps 741 mmHg 79%
    18:00 +13°C° 0.1 mm 12 mps 740 mmHg 79%
    19:00 +12°C° 0.7 mm 12 mps 740 mmHg 76%
    20:00 +11°C° 0.7 mm 11 mps 740 mmHg 74%
    21:00 +9°C° 0.7 mm 11 mps 740 mmHg 71%
    22:00 +8°C° 0.1 mm 11 mps 741 mmHg 73%
    23:00 +6°C° 0.1 mm 11 mps 741 mmHg 75%
    Show more